Location: la Bollière
(45.8128°N, 6.3368°E)
Time: 14:51:43
(UTC+00:00)

Daily predictions for brighter satellites

Satellite Brightness Start Highest point End
(mag) Time Altitude Azimuth Time Altitude Azimuth Time Altitude Azimuth
USA 229 DEB 4.3 19:36:59 10° NW 19:44:26 69° WSW 19:52:27 10° SSE
USA 229 4.3 19:37:05 10° NW 19:44:32 70° WSW 19:52:35 10° SSE
BREEZE-M DEB (TANK) 3.4 19:42:41 10° WSW 19:46:02 75° SSE 19:54:12 10° E
Meteor 1-14 Rocket 4.4 19:42:37 10° N 19:48:33 76° ENE 19:54:31 10° SSE
Okean 3 Rocket 3.7 19:46:11 10° N 19:50:32 58° ENE 19:54:49 10° SSE
Cosmos 1331 Rocket 4.1 19:49:08 10° NNW 19:54:22 68° ENE 19:59:31 10° SSE
Resurs 01 Rocket 2.8 19:55:10 10° S 19:59:23 44° W 20:03:38 10° NNW
Tsikada Rocket 4.3 19:54:32 10° SSW 20:00:44 74° W 20:07:04 10° N
Cosmos 1743 3.3 19:58:52 10° NNW 20:02:24 52° W 20:05:54 10° S
Cosmos 1766 Rocket 4.2 19:58:41 10° NNW 20:03:04 57° W 20:07:26 10° S
BREEZE-M DEB (TANK) 3.2 20:00:56 10° WSW 20:03:42 83° SSE 20:12:23 10° ENE
Okean O Rocket 2.6 19:59:34 10° S 20:03:51 47° W 20:08:08 10° NNW
MOS 1 4.3 19:59:02 10° SSE 20:04:42 82° ENE 20:10:23 10° NNW
Cosmos 1110 Rocket 4.1 19:59:59 10° NNW 20:05:20 90° E 20:10:38 10° SSE
FALCON 9 R/B 3.7 20:03:20 10° SW 20:07:32 30° S 20:17:50 10° ESE
Spot 2 Rocket 4.2 20:10:35 11° SE 20:15:07 40° ENE 20:19:50 10° N
NOSS 2-1 (C) 4.3 20:11:40 10° NNW 20:15:19 42° NE 20:19:55 11° ESE
Cosmos 1340 3.6 20:12:55 10° NNE 20:15:53 27° ENE 20:18:12 14° SE
Lacrosse 5 rocket 4.1 20:16:02 10° NW 20:18:58 18° N 20:21:53 10° NE
Cosmos 1743 Rocket 4.3 20:14:57 10° N 20:19:06 38° ENE 20:22:37 14° SE
Lacrosse 4 Rocket 2.9 20:15:54 10° N 20:19:20 25° NE 20:22:47 10° ESE
CZ-4 R/B 4.4 20:21:23 10° WSW 20:22:16 11° W 20:23:09 10° WNW
USA 306 3.7 20:21:49 10° WNW 20:25:16 33° SW 20:28:14 13° SSE
Meteor 1-27 Rocket 3.9 20:20:38 10° S 20:25:58 54° E 20:31:23 10° NNE
Cosmos 1408 Rocket 3.6 20:21:50 10° N 20:26:19 80° E 20:30:33 11° SSE
Cosmos 1733 3.5 20:24:50 10° N 20:28:12 42° ENE 20:30:34 17° SE
Cosmos 1340 Rocket 3.2 20:25:26 11° SSE 20:29:05 44° E 20:32:53 10° NNE
CZ-4C R/B 3.7 20:25:14 10° N 20:29:07 66° WNW 20:33:07 10° SSW
IRS-1A Rocket 4.3 20:24:37 10° SSE 20:30:13 89° ENE 20:35:47 10° NNW
Cosmos 1626 4.0 20:33:21 11° E 20:33:49 11° E 20:34:54 10° ENE
SPOT 5 2.9 20:30:17 10° S 20:34:44 66° WSW 20:39:05 10° NNW
Cosmos 1151 Rocket 3.6 20:32:39 15° SSE 20:35:53 39° E 20:39:55 10° NNE
Ariane Rocket 3.2 20:34:06 15° SSE 20:38:15 62° ENE 20:43:17 10° N
Cosmos 1726 3.3 20:42:15 10° NNW 20:45:03 30° W 20:47:49 10° SSW
Cosmos 1833 Rocket 4.1 20:43:39 16° SE 20:45:37 19° E 20:49:28 10° NE
SPOT 3 Rocket 3.6 20:42:08 17° SSE 20:46:08 66° ENE 20:51:14 10° N
Landsat 5 4.2 20:42:56 10° NE 20:46:16 29° E 20:47:52 21° SE
Cosmos 1818 3.8 20:43:22 10° S 20:48:33 47° ESE 20:53:47 10° NE
Meteor 2-17 Rocket 4.4 20:45:00 10° S 20:50:59 70° E 20:57:01 10° NNE
Nadezhda 4 Rocket 4.0 20:46:15 10° S 20:52:24 72° E 20:58:40 10° NNE
Okean-O 4.4 20:49:10 10° SSW 20:52:58 28° W 20:56:47 10° NW
Cosmos 1805 3.6 20:49:31 10° N 20:53:06 44° ENE 20:54:55 24° SE
Cosmos 2369 Rocket 4.5 20:49:36 10° WNW 20:53:08 17° W 20:56:39 10° SW
USA 245 2.5 20:52:10 26° SSW 20:53:12 53° WSW 20:55:41 10° NNW
Cosmos 1656 4.1 20:48:16 10° NNW 20:53:35 49° ENE 20:57:19 19° SE
ERS-1 Rocket 3.1 20:49:15 14° S 20:53:37 72° WSW 20:58:39 10° NNW
Okean 1 3.8 20:50:32 10° SSW 20:54:20 59° WNW 20:58:12 10° N
Cosmos 220 Rocket 4.0 20:52:37 12° S 20:56:28 59° ESE 21:00:43 10° NNE
Cosmos 614 Rocket 3.9 20:53:48 10° S 20:58:57 71° ESE 21:04:10 10° NNE
Cosmos 1500 Rocket 4.0 20:58:10 10° NNW 21:02:23 57° W 21:05:47 15° S
Cosmos 1975 3.2 21:00:34 10° N 21:04:23 46° ENE 21:06:07 27° SE
SL-8 R/B 4.0 21:06:24 10° WNW 21:11:08 65° N 21:15:52 10° E
Cosmos 1269 Rocket 4.3 21:08:16 21° SSE 21:11:29 47° ESE 21:16:32 10° NNE
USA 59 Rocket 0.3 21:07:55 10° NW 21:11:58 73° SW 21:15:04 25° SSE
Cosmos 1805 Rocket 4.2 21:09:28 10° NNW 21:13:46 52° W 21:16:58 17° SSW
NOSS 2-1 (E) 3.8 21:10:45 10° NW 21:14:47 69° SW 21:17:49 25° SSE
Sich 1 3.7 21:10:33 10° NNW 21:14:48 50° W 21:17:57 17° SSW
DELTA 2 R/B (1) 4.1 21:11:47 10° SW 21:16:50 36° SSE 21:20:14 18° ESE
Cosmos 1633 Rocket 3.5 21:13:36 10° N 21:17:54 48° ENE 21:19:46 29° SE
Cosmos 1666 Rocket 3.5 21:18:35 10° N 21:22:53 66° E 21:24:44 32° SSE
GEOS 3 Rocket 3.9 21:19:18 10° NE 21:24:14 44° ESE 21:27:02 23° S
Spot 1 3.9 21:21:23 10° NNE 21:25:32 90° S 21:28:15 22° SSW
Terra 2.8 21:22:25 15° SSW 21:25:54 40° W 21:30:21 10° NNW
NOSS 2-1 (D) 4.2 21:23:51 10° NW 21:27:49 51° SW 21:30:22 27° S
Cosmos 2026 Rocket 4.0 21:26:45 21° S 21:31:04 76° E 21:37:17 10° NNE
Cosmos 1992 Rocket 4.1 21:29:21 10° NNW 21:34:33 73° WSW 21:37:11 29° S
Cosmos 1627 Rocket 4.5 21:38:50 21° S 21:43:13 90° WNW 21:49:31 10° N
Cosmos 1697 Rocket 3.1 21:38:50 10° NNW 21:44:20 52° ENE 21:47:10 27° ESE
Cosmos 1607 4.2 21:42:38 24° S 21:46:23 53° ESE 21:52:40 10° NE
NOSS 3-3 (A) 3.9 21:41:50 10° SW 21:47:16 80° NW 21:53:39 10° NE
USA 281 3.3 21:44:56 28° SSE 21:48:42 75° WSW 21:55:19 10° NNW
Cosmos 1707 3.9 21:52:01 26° E 21:52:01 26° E 21:54:59 10° NNE
Orbus 7S? 3.4 21:46:56 10° SW 21:52:54 66° SE 21:56:02 10° ENE
ALOS 2 4.5 21:51:27 16° E 21:53:08 20° ENE 21:56:19 10° NNE
Cosmos 1980 Rocket 3.4 21:48:47 10° NNW 21:53:55 33° NE 21:57:19 18° ESE
Cosmos 1140 Rocket 3.7 21:55:41 37° SSE 21:57:15 50° ESE 22:02:18 10° NNE
Lacrosse 4 Rocket 2.2 21:53:53 10° NW 21:57:42 38° WSW 21:58:43 32° SSW
Lacrosse 5 rocket 3.3 21:54:55 10° NW 21:58:29 26° NNE 22:01:58 10° ENE
Meteor 2-4 Rocket 4.4 21:58:17 16° SSW 22:02:58 56° WNW 22:08:50 10° N
H-2A R/B 3.3 22:02:00 34° ESE 22:03:05 41° ENE 22:07:07 10° N
Cosmos 1066 Rocket 4.2 22:00:45 30° S 22:03:48 88° E 22:09:42 10° NNE
NOSS 3-4 (A) 4.1 21:58:07 10° NW 22:04:52 63° NE 22:10:02 22° ESE
NOSS 3-4 (C) 4.1 21:58:12 10° NW 22:04:58 62° NE 22:10:09 22° ESE
Cosmos 1626 3.0 22:06:08 31° WSW 22:06:57 37° WNW 22:09:59 10° N
Cosmos 1842 3.2 22:07:26 55° ESE 22:07:33 56° E 22:11:11 10° NNE
Cosmos 1553 Rocket 3.9 22:01:26 10° N 22:07:33 80° E 22:10:14 36° SSE
BREEZE-M DEB (TANK) 3.0 22:07:26 10° WNW 22:09:27 44° NNE 22:10:18 31° ENE
Spot 4 4.5 22:12:43 34° ESE 22:14:13 45° ENE 22:18:45 10° N
BREEZE-M DEB (TANK) 3.7 22:11:16 15° SW 22:14:54 69° SE 22:30:50 10° ENE
KORONAS-FOTON 3.6 22:18:54 70° ESE 22:19:01 71° E 22:22:43 10° NNE
ARIANE 5 R/B 2.5 22:18:32 54° S 22:19:29 82° WSW 22:23:49 10° NNW
CZ-2C R/B 3.6 22:15:52 10° NNE 22:20:21 81° WNW 22:21:42 45° SSW
Cosmos 1674 2.3 22:21:30 80° WSW 22:21:35 81° W 22:25:06 10° N
Cosmos 2285 Rocket 4.0 22:21:35 36° S 22:24:13 68° ESE 22:30:31 10° NNE
COSMOS 2406 4.1 22:27:11 30° ESE 22:27:57 31° ESE 22:32:57 10° NE
Cosmos 1833 Rocket 2.9 22:25:16 22° SW 22:28:56 68° WNW 22:34:33 10° NNE
Cosmos 1766 4.0 22:26:38 10° NNW 22:30:09 38° W 22:30:39 36° WSW
Cosmos 1763 Rocket 4.2 22:26:25 10° N 22:31:33 46° ENE 22:33:32 32° ESE
SL-16 R/B 4.4 22:28:03 10° N 22:32:06 19° NE 22:36:06 10° E
Cosmos 407 Rocket 3.4 22:34:45 47° S 22:36:15 74° ESE 22:41:29 10° NNE
H-2A R/B 3.8 22:34:25 10° NE 22:37:41 20° E 22:37:41 20° E
Cosmos 724 4.2 22:34:15 27° SW 22:37:41 86° NW 22:43:33 10° NE
Cosmos 1515 Rocket 4.1 22:38:30 38° SW 22:39:44 52° WNW 22:43:58 10° N
Cosmos 2082 Rocket 2.6 22:38:48 41° SE 22:39:56 47° ESE 22:45:22 10° NE
Cosmos 2266 Rocket 4.0 22:38:38 41° S 22:40:55 74° E 22:47:12 10° NNE
BREEZE-M DEB (TANK) 2.9 22:42:14 64° WSW 22:42:42 89° SSE 22:49:09 10° ENE
Cosmos 1470 2.8 22:40:01 10° NNW 22:43:39 58° W 22:43:42 58° W
Cosmos 44 Rocket 3.6 22:39:35 10° NW 22:44:19 49° WSW 22:44:56 46° SW
Cosmos 1733 Rocket 4.3 22:43:26 10° N 22:47:17 30° ENE 22:48:07 28° E
Meteor 1-13 Rocket 4.3 22:46:35 43° S 22:48:37 83° E 22:54:30 10° NNE
Cosmos 1190 Rocket 4.2 22:48:13 47° SE 22:49:07 53° ESE 22:54:17 10° NNE
Cosmos 1869 Rocket 3.4 22:48:54 10° N 22:53:19 89° WSW 22:53:51 68° S
SL-8 R/B 3.5 22:48:55 10° WNW 22:53:39 67° SSW 22:54:04 63° S
Cosmos 2228 Rocket 3.6 22:58:02 43° ESE 22:58:25 45° E 23:02:43 10° NNE
Cosmos 1655 Rocket 4.0 22:57:29 43° SSE 22:59:41 73° E 23:06:04 10° NNE
Cosmos 2251 Rocket 3.5 22:59:14 43° SW 23:00:57 77° WNW 23:06:17 10° NNE
USA 59 Rocket 2.8 23:00:58 10° WSW 23:01:34 10° WSW 23:01:37 10° WSW
Meteor 2-10 Rocket 3.9 22:55:47 10° N 23:01:35 64° ENE 23:03:24 42° SE
DELTA 2 R/B (1) 4.3 22:57:23 10° WSW 23:01:00 35° SW 23:01:00 35° SW
Cosmos 1908 3.8 23:03:25 10° NNW 23:06:34 43° W 23:06:34 43° W
Meteor 1-22 Rocket 4.0 23:02:30 10° NNW 23:07:53 86° W 23:09:19 51° S
Cosmos 1346 Rocket 3.7 23:10:14 10° N 23:13:51 37° ENE 23:14:08 36° E
Cosmos 1400 Rocket 2.7 23:15:48 78° E 23:15:48 78° E 23:19:45 10° NNE
GP-B 3.0 23:13:45 10° N 23:18:10 71° E 23:18:36 65° SE
Meteor 1-21 4.5 23:18:44 45° SE 23:20:12 58° E 23:25:51 10° NNE
SL-24 R/B 4.4 23:15:34 10° NNE 23:20:23 81° ESE 23:21:33 55° S
Meteor 1-15 Rocket 4.2 23:15:11 10° NNW 23:20:46 68° W 23:22:13 48° SSW
Cosmos 1862 Rocket 3.6 23:26:10 61° ESE 23:26:26 63° E 23:30:44 10° NNE
Cosmos 2322 Rocket 3.8 23:23:02 10° N 23:27:56 29° NE 23:32:46 10° ESE
Cosmos 1697 Rocket 3.9 23:23:23 10° NW 23:27:57 26° WSW 23:28:53 25° WSW
ALOS 2 3.0 23:28:50 46° WSW 23:29:08 46° W 23:33:24 10° NNW
Cosmos 1356 Rocket 3.5 23:29:58 62° E 23:30:00 62° E 23:34:07 10° NNE
Iridium 51 4.5 23:33:24 67° SW 23:33:51 75° W 23:38:22 10° N
USA 267 3.6 23:28:12 10° ENE 23:34:27 46° SE 23:35:52 40° SSE
SJ 16-02 3.7 23:34:22 11° E 23:34:41 12° E 23:36:10 10° ENE
PSLV R/B 3.5 23:31:51 10° N 23:36:19 80° WNW 23:36:50 67° SW
Cosmos 1300 2.8 23:33:07 10° NNW 23:36:14 61° NW 23:36:14 61° NW
Lacrosse 5 rocket 1.2 23:33:07 10° NW 23:37:07 81° W 23:37:07 81° W
Cosmos 1980 Rocket 2.6 23:32:39 10° NW 23:38:04 45° WSW 23:39:03 41° SW
H-2A R/B 4.3 23:37:59 20° W 23:38:12 20° W 23:41:22 10° NW
Cosmos 381 Rocket 4.5 23:32:18 10° NNW 23:38:41 72° WSW 23:40:43 45° S
Meteor 1-4 Rocket 4.3 23:41:04 20° ENE 23:41:04 20° ENE 23:42:33 10° NE
Cosmos 2333 Rocket 4.0 23:35:42 10° N 23:40:31 27° NE 23:45:20 10° ESE
Cosmos 1953 3.2 23:41:23 10° N 23:45:02 37° ENE 23:45:27 36° E
SL-14 R/B 3.6 23:48:27 51° W 23:48:28 51° WNW 23:52:14 10° N
Cosmos 1707 Rocket 3.7 23:49:21 55° WSW 23:49:56 61° WNW 23:54:22 10° N
Cosmos 841 Rocket 3.5 23:49:03 10° NNW 23:54:20 75° ENE 23:55:58 44° SE
